Weather in Zundert

Netherlands     51°28′13″N   4°39′39″E
temp.,
°C
wind,
m/s
gust,
m/s
humid.,
%
clouds,
%
prec.,
mm/h
press.,
hPa
HPBL,
m
15 may, sat
sat1523:00+8nnw35952 1.1 100898
02:00+7n23973 1.3 100748
05:00+6w229758 0.3 100618
08:00+8ssw2390100 0.3 1006228
11:00+12ssw4580100 0.4 1004795
14:00+12ssw5777100 2.3 1003872
17:00+10s4888100 0.9 1002667
20:00+12ssw368387 1.2 1000519
16 may, sun
sun1623:00+8ssw489598 0.4 1001197
02:00+8sw6139369 0.7 1001440
05:00+7ssw512950 0.0 1001383
08:00+8ssw612915 0.0 1001490
11:00+13sw786620 0.2 10011338
14:00+13wsw577197 1.8 10011153
17:00+13wsw687285 1.6 10011162
20:00+12wsw357999 2.4 1000206
17 may, mon
mon1723:00+9s3691100 0.4 1001103
02:00+10s5109596 0.9 1000366
05:00+9s61296100 1.9 999819
08:00+10sw91493100 3.6 998881
11:00+10wsw81195100 2.5 1001762
14:00+14w8107873 4.8 10031243
17:00+14w797465 1.4 10041323
20:00+12w478230 2.0 1005540
18 may, tue
tue1823:00+8w3496100 0.3 100782
02:00+8wsw2396100 0.3 100849
05:00+9sw3698100 0.3 1008273
08:00+9nw4799100 3.2 1009445
11:00+11wnw798175 4.8 1013976
14:00+14wnw895779 4.9 10141740
17:00+14wnw795666 0.0 10151677
20:00+12w4878100 0.3 1016462
19 may, wed
wed1923:00+8sw499227 0.3 1017176
02:00+8sw499668 0.3 1016223
05:00+7sw41096100 0.1 1016317
08:00+9sw5108917 0.2 1016454
11:00+13w79708 0.6 10171314
14:00+14w911545 0.7 10171825
17:00+14w8105724 0.0 10181794
20:00+12w69715 0.0 1018886